Weather observations for the past three days for
Aquadilla, Rafael Hernandez Airport
Imperial (Metric)
Date Time (ast) Wind (mph) Vis. (mi.) Weather Sky Cond. Temperature (ºF) Relative Humidity Wind Chill (°F) Heat Index (°F) Pressure Precipitation (in)
Air Dwpt 6 hour altimeter (in) sea level (mb) 1 hr 3 hr 6 hr
Max. Min.
14 06:50 Calm 6.00 Partly Cloudy with Haze SCT019 SCT031 SCT038 78.8 75.2 89% 82 30.07 0.0
13 20:50 E 5 10.00 Mostly Cloudy BKN016 BKN028 BKN036 82.4 78.8 89% 92 30.11 0.0
13 19:50 SE 7 10.00 Partly Cloudy SCT013 SCT018 SCT028 82.4 78.8 89% 92 30.08 0.0
13 18:50 E 6 10.00 NULL NULL 82.4 78.8 89% 92 30.09 0.0
13 17:50 E 15 G 18 10.00 Thunderstorm in Vicinity NULL 84.2 78.8 84% 96 30.07 0.0
13 16:50 E 20 G 24 10.00 Thunderstorm in Vicinity SCT016 84.2 78.8 84% 96 30.07 0.0
13 15:50 E 21 G 26 10.00 Fair and Breezy CLR 87.8 78.8 75% 102 30.04 0.0
13 14:50 E 20 G 25 10.00 Partly Cloudy SCT016 89.6 78.8 71% 105 30.05 0.0
13 13:50 E 20 10.00 Fair CLR 89.6 78.8 71% 105 30.06 0.0
13 12:50 E 12 G 20 10.00 Fair CLR 89.6 77 67% 103 30.07 0.0
13 11:50 E 13 G 22 10.00 Fair CLR 87.8 75.2 66% 98 30.09 0.0
13 10:50 E 8 10.00 Overcast BKN090 OVC100 84.2 77 79% 94 30.12 0.0
13 09:50 E 13 10.00 Mostly Cloudy BKN110 82.4 75.2 79% 89 30.13 0.0
13 08:50 E 6 10.00 Light Rain SCT042 SCT048 BKN110 80.6 75.2 84% 86 30.1 0.0
13 07:50 E 9 10.00 Mostly Cloudy BKN090 80.6 75.2 84% 86 30.09 0.0
13 06:50 E 3 10.00 Thunderstorm in Vicinity BKN090 78.8 75.2 89% 82 30.07 0.0
12 23:50 E 7 10.00 Fair CLR 78.8 75.2 89% 82 30.13 0.0
12 22:50 E 10 10.00 Partly Cloudy SCT019 SCT025 80.6 75.2 84% 86 30.13 0.0
12 21:50 E 8 10.00 Mostly Cloudy SCT018 SCT022 BKN038 82.4 77 84% 91 30.11 0.0
12 20:50 E 14 G 20 10.00 Fair CLR 82.4 75.2 79% 89 30.11 0.0
12 19:50 E 13 G 17 10.00 Partly Cloudy SCT016 SCT022 SCT039 82.4 77 84% 91 30.1 0.0
12 18:50 E 18 G 24 10.00 Mostly Cloudy BKN018 BKN025 BKN032 84.2 77 79% 94 30.09 0.0
12 17:50 E 20 G 25 10.00 Mostly Cloudy BKN020 BKN024 BKN030 86 77 75% 97 30.07 0.0
12 16:50 E 21 G 25 10.00 Partly Cloudy and Breezy SCT016 SCT026 SCT033 86 77 75% 97 30.06 0.0
12 15:50 E 23 G 28 10.00 Fair and Breezy CLR 87.8 77 70% 100 30.05 0.0
12 14:50 E 22 G 32 10.00 Partly Cloudy and Breezy SCT021 89.6 77 67% 103 30.06 0.0
12 13:50 E 26 G 33 10.00 Partly Cloudy and Windy SCT021 89.6 78.8 71% 105 30.08 0.0
12 12:50 E 21 G 31 10.00 Fair and Breezy CLR 89.6 75.2 63% 100 30.09 0.0
12 11:50 E 25 G 31 10.00 Fair and Breezy CLR 89.6 77 67% 103 30.1 0.0
12 10:50 E 17 10.00 Fair CLR 89.6 75.2 63% 100 30.11 0.0
12 09:50 E 17 10.00 Partly Cloudy SCT025 87.8 75.2 66% 98 30.1 0.0
12 08:50 E 14 10.00 Partly Cloudy SCT040 86 75.2 70% 95 30.1 0.0
12 07:50 E 7 10.00 Partly Cloudy SCT065 78.8 75.2 89% 82 30.1 0.0
12 06:50 E 8 10.00 Partly Cloudy SCT070 78.8 73.4 84% 82 30.09 0.0
11 20:50 E 3 10.00 Fair CLR 80.6 75.2 84% 86 30.04 0.0
11 19:50 SE 5 10.00 Fair CLR 82.4 75.2 79% 89 30.02 0.0
11 18:50 E 7 10.00 Partly Cloudy SCT019 SCT033 82.4 77 84% 91 30 0.0
11 17:50 E 12 G 17 10.00 Mostly Cloudy BKN019 BKN025 BKN034 84.2 75.2 74% 92 29.98 0.0
11 16:50 E 13 10.00 Mostly Cloudy BKN021 BKN032 BKN090 84.2 75.2 74% 92 29.96 0.0
11 15:50 E 6 10.00 Thunderstorm in Vicinity BKN023 BKN027 OVC041 80.6 73.4 79% 85 29.96 0.0
11 14:50 S 8 G 21 10.00 Thunderstorm BKN024 OVC048 84.2 75.2 74% 92 29.99 0.0
11 13:50 E 22 G 30 10.00 Mostly Cloudy and Breezy BKN100 89.6 75.2 63% 100 29.98 0.0
11 12:50 NE 21 G 25 10.00 Partly Cloudy and Breezy SCT020 SCT025 89.6 75.2 63% 100 29.99 0.0
11 11:50 NE 16 G 22 10.00 Partly Cloudy SCT020 SCT025 89.6 75.2 63% 100 30.01 0.0
11 10:50 NE 15 10.00 Fair CLR 87.8 75.2 66% 98 30.01 0.0
11 09:50 E 15 10.00 Partly Cloudy SCT028 87.8 75.2 66% 98 30.01 0.0
11 08:50 E 12 G 18 10.00 Partly Cloudy SCT020 84.2 73.4 70% 91 30 0.0
11 07:50 E 10 10.00 Partly Cloudy SCT025 82.4 75.2 79% 89 30.01 0.0
Date Time (ast) Wind (mph) Vis. (mi.) Weather Sky Cond. Air Dwpt Max. Min. Relative Humidity Wind Chill (°F) Heat Index (°F) altimeter (in) sea level (mb) 1 hr 3 hr 6 hr
6 hour
Temperature (ºF) Pressure Precipitation (in)